EW7837 Weather Reports


time (UTC)temp
C
wind
direction
speed
KPH
gust
KPH
rain 1hr
cm
rain 24hr
cm
rain mn
cm
humidity
%
barometer
mb
20260504050011 17 273 0.0 0.0 0.00 0.00 0.00 74 1012.3
20260504044501 17 273 0.0 0.0 0.00 0.00 0.00 75 1012.1
20260504043113 17 273 0.0 0.0 0.00 0.00 0.00 75 1011.7
20260504041600 17 273 0.0 0.0 0.00 0.00 0.00 74 1011.5
20260504040116 17 273 0.0 0.0 0.00 0.00 0.00 74 1011.5
20260504034554 17 273 0.0 0.0 0.00 0.00 0.00 73 1011.6
20260504033054 17 273 0.0 0.0 0.00 0.00 0.00 71 1011.5
20260504031558 17 273 0.0 0.0 0.00 0.00 0.00 70 1011.2
20260504030021 17 273 0.0 0.0 0.00 0.00 0.00 70 1011.2
20260504024520 17 273 0.0 0.0 0.00 0.00 0.00 70 1011.1
20260504023017 17 273 0.0 0.0 0.00 0.00 0.00 69 1011.1
20260504021516 18 273 0.0 0.0 0.00 0.00 0.00 69 1011.2
20260504020015 18 273 0.0 0.0 0.00 0.00 0.00 68 1011.1
20260504014523 18 273 0.0 0.0 0.00 0.00 0.00 66 1011.1
20260504013044 18 247 0.0 0.0 0.00 0.00 0.00 66 1011.1
20260504011545 18 247 0.0 0.0 0.00 0.00 0.00 66 1010.7
20260504010050 18 250 0.0 0.0 0.00 0.00 0.00 66 1010.6
20260504004548 19 251 0.0 0.0 0.00 0.00 0.00 67 1010.5
20260504003043 19 269 0.0 0.0 0.00 0.00 0.00 65 1010.2
20260504001555 20 245 0.0 0.0 0.00 0.00 0.00 62 1010.3
20260504000010 20 268 0.0 0.0 0.00 0.00 0.00 60 1010.2
20260503234510 21 255 0.0 0.0 0.00 0.00 0.00 55 1009.7
20260503233044 22 265 0.0 0.0 0.00 0.00 0.00 56 1009.8
20260503231542 22 247 0.0 0.0 0.00 0.00 0.00 54 1010.0
20260503230040 21 269 0.0 0.0 0.00 0.00 0.00 56 1010.2
20260503224539 21 261 1.6 0.0 0.00 0.00 0.00 55 1010.2
20260503223034 21 265 0.0 0.0 0.00 0.00 0.00 56 1010.3
20260503221534 21 265 0.0 0.0 0.00 0.00 0.00 57 1010.4
20260503220030 21 242 0.0 0.0 0.00 0.00 0.00 60 1010.6
20260503214528 21 263 0.0 0.0 0.00 0.00 0.00 63 1010.6
20260503213028 20 267 0.0 0.0 0.00 0.00 0.00 63 1010.7
20260503211528 20 254 0.0 0.0 0.00 0.00 0.00 64 1010.8
20260503210058 20 267 1.6 0.0 0.00 0.00 0.00 63 1010.7
20260503204557 21 265 0.0 0.0 0.00 0.00 0.00 63 1010.6
20260503203053 21 273 1.6 0.0 0.00 0.00 0.00 63 1010.6
20260503201552 21 277 0.0 0.0 0.00 0.00 0.00 63 1010.9
20260503200057 21 281 1.6 0.0 0.00 0.00 0.00 64 1010.9
20260503194549 20 271 0.0 0.0 0.00 0.00 0.00 66 1011.2
20260503193040 20 267 1.6 0.0 0.00 0.00 0.00 67 1011.2
20260503191531 21 261 1.6 0.0 0.00 0.00 0.00 64 1011.1
20260503190015 21 263 0.0 0.0 0.00 0.00 0.00 65 1011.1
20260503184521 21 275 1.6 0.0 0.00 0.00 0.00 64 1011.1
20260503183013 21 264 0.0 0.0 0.00 0.00 0.00 65 1011.0
20260503181510 21 264 0.0 0.0 0.00 0.00 0.00 66 1011.1
20260503180013 21 265 0.0 0.0 0.00 0.00 0.00 69 1011.1
20260503174504 20 265 0.0 0.0 0.00 0.00 0.00 69 1011.1
20260503173006 20 264 0.0 0.0 0.00 0.00 0.00 69 1011.1
20260503171559 20 265 0.0 0.0 0.00 0.00 0.00 70 1011.1
20260503081523 17 264 0.0 0.0 0.00 0.00 0.00 82 1010.6